Natchez, MS

4:09 AM CST on November 20, 2019 (GMT -0600)
Hardy-Anders-Adams County

Weather History for KHEZ - September, 2019

Change the Weather History Date:

Friday, September 27, 2019

  Actual Average Record
Temperature  
Mean Temperature 78 °F -  
Max Temperature 90 °F 83 °F 93 °F (1936)
Min Temperature 66 °F 61 °F 42 °F (1942)
Cooling Degree Days 13    
Growing Degree Days 28 (Base 50)    
Moisture  
Dew Point 67 °F    
Average Humidity 72    
Maximum Humidity 93    
Minimum Humidity 42    
Precipitation  
Precipitation 0.00 in - - ()
Sea Level Pressure  
Sea Level Pressure 29.94 in    
Wind  
Wind Speed 3 mph (South)    
Max Wind Speed 14 mph    
Max Gust Speed 17 mph    
Visibility 10 miles    
Events      
Averages and records for this station are not official NWS values.
T = Trace of Precipitation, MM = Missing Value Source: NWS Daily Summary

Daily Weather History Graph

Daily Weather History Graph

Search for Another Location

Airport or City:

Astronomy

Sep. 27, 2019 Rise Set
Actual Time 6:56 AM CDT 6:55 PM CDT
Civil Twilight 6:32 AM CDT 7:19 PM CDT
Nautical Twilight 6:03 AM CDT 7:48 PM CDT
Astronomical Twilight 5:35 AM CDT 8:16 PM CDT
Moon 5:28 AM CDT (9/27) 6:38 PM CDT (9/27)
Length of Visible Light 12h 47m
Length of Day
11h 59m
Waning Crescent, 2% of the Moon is Illuminated
Sep 27
Waning Crescent
Sep 28
New
Oct 5
First Quarter
Oct 13
Full
Oct 21
Last Quarter

Hourly Weather History & Observations

Time (CDT) Temp. Heat Index Dew Point Humidity Pressure Visibility Wind Dir Wind Speed Gust Speed Precip Events Conditions
12:56 AM 70.0 °F - 66.9 °F 90% 29.92 in 10.0 mi Calm Calm - N/A   Clear
1:56 AM 69.1 °F - 66.0 °F 90% 29.92 in 10.0 mi Calm Calm - N/A   Clear
2:56 AM 69.1 °F - 66.0 °F 90% 29.93 in 10.0 mi Calm Calm - N/A   Clear
3:56 AM 69.1 °F - 66.0 °F 90% 29.92 in 10.0 mi Calm Calm - N/A   Clear
4:56 AM 66.9 °F - 64.9 °F 93% 29.93 in 10.0 mi SSE 4.6 mph - N/A   Clear
5:56 AM 68.0 °F - 66.0 °F 93% 29.94 in 10.0 mi SSE 3.5 mph - N/A   Clear
6:56 AM 68.0 °F - 66.0 °F 93% 29.96 in 10.0 mi Calm Calm - N/A   Clear
7:56 AM 70.0 °F - 66.9 °F 90% 29.97 in 10.0 mi Calm Calm - N/A   Clear
8:56 AM 77.0 °F - 70.0 °F 79% 29.98 in 10.0 mi Calm Calm - N/A   Clear
9:48 AM 80.6 °F 84.6 °F 71.6 °F 74% 29.99 in 10.0 mi SSE 10.4 mph - N/A   Mostly Cloudy
9:56 AM 82.0 °F 86.3 °F 71.1 °F 69% 29.99 in 10.0 mi SSE 9.2 mph - N/A   Mostly Cloudy
10:56 AM 84.0 °F 87.8 °F 69.1 °F 61% 29.99 in 10.0 mi SE 13.8 mph - N/A   Scattered Clouds
11:56 AM 84.0 °F 86.5 °F 66.9 °F 56% 29.98 in 10.0 mi SSW 9.2 mph - N/A   Scattered Clouds
12:56 PM 87.1 °F 89.2 °F 66.0 °F 49% 29.95 in 10.0 mi South 12.7 mph - N/A   Partly Cloudy
1:56 PM 88.0 °F 89.3 °F 64.0 °F 45% 29.93 in 10.0 mi SSW 9.2 mph - N/A   Clear
2:56 PM 90.0 °F 91.7 °F 64.9 °F 43% - 10.0 mi Variable 6.9 mph - N/A   Clear
3:56 PM 90.0 °F 91.7 °F 64.9 °F 43% 29.89 in 10.0 mi South 9.2 mph - N/A   Partly Cloudy
4:56 PM 90.0 °F 91.3 °F 64.0 °F 42% 29.88 in 10.0 mi SSW 11.5 mph 17.3 mph N/A   Clear
5:56 PM 88.0 °F 89.6 °F 64.9 °F 46% 29.89 in 10.0 mi SSW 6.9 mph - N/A   Clear
6:56 PM 82.9 °F 85.0 °F 66.0 °F 56% 29.89 in 10.0 mi South 3.5 mph - N/A   Partly Cloudy
7:56 PM 77.0 °F - 68.0 °F 74% 29.90 in 10.0 mi Calm Calm - N/A   Clear
8:56 PM 75.0 °F - 68.0 °F 79% 29.92 in 10.0 mi Calm Calm - N/A   Clear
9:56 PM 73.9 °F - 68.0 °F 82% 29.94 in 10.0 mi SSE 4.6 mph - N/A   Partly Cloudy
10:56 PM 73.9 °F - 66.9 °F 79% 29.94 in 10.0 mi South 3.5 mph - N/A   Clear
11:56 PM 73.0 °F - 68.0 °F 84% 29.94 in 10.0 mi South 4.6 mph - N/A   Clear